Notices

What's New in latest Release from April 7th, 2021:

- Updated Glossary, including Speed of Maximum Gust, and Total Hourly Precipitation

- Updated national and regional climate services offices contacts and prices information

- Addition of station inventory lists for 1981-2010, 1971-2000, and 1961-1990 Normals.

If you haven't already, please take our survey and provide feedback about our website: https://eccc.sondage-survey.ca/f/LanguageSelection.aspx?s=442ca660-fcf1-47c0-95a9-59707d6fd709

Hourly Data Report for February 21, 2012

HALIFAX STANFIELD INT'L A
NOVA SCOTIA

44°52'48.060" N
63°30'00.050" W
145.40 m
8202250
71395
YHZ

Download Data

Hourly Data (February 2012)
Hourly Data Report for February 21, 2012
TIME
LST
Temp Definition
°C
Dew Point Definition
°C
Rel Hum Definition
%
Precip. Amount Definition
mm

Wind Dir Definition
10's deg

Wind Spd Definition
km/h
Visibility Definition
km
Stn Press Definition
kPa
Hmdx Definition


Wind Chill Definition


Weather Definition


00:00 -9.0 -12.8 74   33 15 24.1 99.84   -16 Clear
01:00 -9.3 -12.6 77   33 20 24.1 99.88   -17 Clear
02:00 -9.5 -13.2 74   33 20 24.1 99.93   -17 Clear
03:00 -9.7 -14.0 71   32 19 24.1 99.95   -17 Mainly Clear
04:00 -10.2 -14.1 73   32 17 24.1 99.99   -17 Clear
05:00 -10.3 -13.9 75   31 13 24.1 100.10   -17 Mainly Clear
06:00 -9.8 -13.8 73   32 20 24.1 100.17   -18 Mostly Cloudy
07:00 -10.7 -14.1 76   31 11 24.1 100.22   -16 Mainly Clear
08:00 -10.6 -14.1 75   31 13 24.1 100.36   -17 Clear
09:00 -9.2 -13.8 69   31 15 24.1 100.44   -16 Clear
10:00 -7.6 -13.6 62   32 15 24.1 100.40   -14 Clear
11:00 -6.0 -12.3 61   31 17 24.1 100.36   -12 Clear
12:00 -3.8 -12.1 52   32 19 24.1 100.31   -10 Clear
13:00 -2.4 -11.8 48   30 9 24.1 100.23   -6 Clear
14:00 -0.7 -11.4 44   30 17 24.1 100.19   -6 Mainly Clear
15:00 -0.5 -11.9 42   29 20 24.1 100.13   -6 Mainly Clear
16:00 -0.4 -10.6 46   29 15 24.1 100.12   -5 Mainly Clear
17:00 -1.3 -10.9 48   30 17 24.1 100.11   -6 Mainly Clear
18:00 -3.1 -11.6 52   28 6 24.1 100.14   -6 Mainly Clear
19:00 -4.7 -11.2 60   29 7 24.1 100.17   -8 Mainly Clear
20:00 -5.4 -11.1 64   28 7 24.1 100.15   -9 Mainly Clear
21:00 -5.5 -11.0 65   27 6 24.1 100.10   -8 Mainly Clear
22:00 -5.6 -10.7 67   17 7 24.1 100.05   -9 Mainly Clear
23:00 -6.4 -10.3 74   18 9 24.1 99.98   -11 Mostly Cloudy

Notes on Data Quality.

Legend

  • E = Estimated
  • M = Missing
  • NA = Not Available*
  • [empty] = Indicates an unobserved value
Date modified: